Weather History for KXLL - October, 2013

Change the Weather History Date:

Friday, October 25, 2013

  Actual Average (KABE) Record (KABE)
Temperature  
Mean Temperature 42 °F 50 °F  
Max Temperature 51 °F 61 °F 78 °F (1963)
Min Temperature 33 °F 38 °F 26 °F (1962)
Degree Days  
Heating Degree Days 23 16  
Month to date heating degree days 297  
Since 1 July heating degree days 412  
Cooling Degree Days 0 0  
Month to date cooling degree days 3  
Year to date cooling degree days 753  
Moisture  
Dew Point 31 °F    
Average Humidity 65    
Maximum Humidity 87    
Minimum Humidity 41    
Precipitation  
Precipitation 0.00 in 0.11 in 1.78 in (1926)
Month to date precipitation 3.24  
Year to date precipitation 37.63  
Snow  
Snow 0.00 in 0.00 in T in (1962)
Month to date snowfall 0.0  
Since 1 July snowfall 0.0  
Since 1 September snowfall 0.0  
Snow Depth -    
Sea Level Pressure  
Sea Level Pressure 30.17 in    
Wind  
Wind Speed 7 mph (WSW)    
Max Wind Speed 14 mph    
Max Gust Speed 22 mph    
Visibility 10 miles    
Events      
T = Trace of Precipitation, MM = Missing Value Source: NWS Daily Summary

Daily Weather History Graph

Daily Weather History Graph

Search for Another Location

Airport or City:

Trip Planner

Search our weather history database for the weather conditions in past years. The results will help you decide how hot, cold, wet, or windy it might be!

Date:

Astronomy

Oct. 25, 2013 Rise Set
Actual Time 7:24 AM EDT 6:07 PM EDT
Civil Twilight 6:56 AM EDT 6:35 PM EDT
Nautical Twilight 6:24 AM EDT 7:07 PM EDT
Astronomical Twilight 5:52 AM EDT 7:38 PM EDT
Moon 11:24 PM EDT (10/25) 1:03 PM EDT (10/25)
Length of Visible Light 11h 38m
Length of Day
10h 42m
Waning Gibbous, 62% of the Moon is Illuminated
Oct 25
Waning Gibbous
Oct 26
Last Quarter
Nov 3
New
Nov 10
First Quarter
Nov 17
Full

Hourly Weather History & Observations

Time (EDT) Temp. Windchill Dew Point Humidity Pressure Visibility Wind Dir Wind Speed Gust Speed Precip Events Conditions
12:15 AM 37.4 °F 32.1 °F 28.4 °F 70% 30.06 in 10.0 mi SW 6.9 mph - N/A   Clear
12:35 AM 35.6 °F 29.2 °F 28.4 °F 75% 30.06 in 10.0 mi SW 8.1 mph - N/A   Clear
12:55 AM 37.4 °F 31.4 °F 28.4 °F 70% 30.07 in 10.0 mi SW 8.1 mph - N/A   Clear
1:15 AM 37.4 °F 31.4 °F 28.4 °F 70% 30.07 in 10.0 mi SW 8.1 mph - N/A   Clear
1:35 AM 37.4 °F 32.1 °F 28.4 °F 70% 30.07 in 10.0 mi WSW 6.9 mph - N/A   Clear
1:55 AM 35.6 °F 29.9 °F 28.4 °F 75% 30.07 in 10.0 mi SW 6.9 mph - N/A   Clear
2:15 AM 37.4 °F 32.1 °F 28.4 °F 70% 30.08 in 10.0 mi WSW 6.9 mph - N/A   Clear
2:35 AM 37.4 °F 32.8 °F 28.4 °F 70% 30.07 in 10.0 mi WSW 5.8 mph - N/A   Clear
2:55 AM 35.6 °F 28.6 °F 28.4 °F 75% 30.08 in 10.0 mi SW 9.2 mph - N/A   Clear
3:15 AM 35.6 °F 29.2 °F 28.4 °F 75% 30.08 in 10.0 mi SW 8.1 mph - N/A   Clear
3:35 AM 35.6 °F 28.6 °F 28.4 °F 75% 30.07 in 10.0 mi SW 9.2 mph - N/A   Clear
3:55 AM 35.6 °F 30.7 °F 28.4 °F 75% 30.08 in 10.0 mi WSW 5.8 mph - N/A   Clear
4:15 AM 35.6 °F 29.9 °F 28.4 °F 75% 30.09 in 10.0 mi West 6.9 mph - N/A   Clear
4:35 AM 35.6 °F 30.7 °F 28.4 °F 75% 30.09 in 10.0 mi West 5.8 mph - N/A   Clear
4:55 AM 35.6 °F 30.7 °F 30.2 °F 81% 30.10 in 7.0 mi WSW 5.8 mph - N/A   Clear
5:15 AM 35.6 °F 30.7 °F 28.4 °F 75% 30.11 in 10.0 mi WSW 5.8 mph - N/A   Clear
5:35 AM 33.8 °F 27.7 °F 30.2 °F 87% 30.11 in 10.0 mi SW 6.9 mph - N/A   Clear
5:55 AM 33.8 °F 28.6 °F 30.2 °F 87% 30.12 in 10.0 mi SW 5.8 mph - N/A   Clear
6:15 AM 33.8 °F 28.6 °F 30.2 °F 87% 30.12 in 10.0 mi SW 5.8 mph - N/A   Clear
6:35 AM 33.8 °F 29.6 °F 30.2 °F 87% 30.13 in 10.0 mi SW 4.6 mph - N/A   Clear
6:55 AM 33.8 °F 28.6 °F 30.2 °F 87% 30.13 in 10.0 mi SSW 5.8 mph - N/A   Clear
7:15 AM 33.8 °F 28.6 °F 30.2 °F 87% 30.14 in 10.0 mi SW 5.8 mph - N/A   Clear
7:35 AM 33.8 °F - 30.2 °F 87% 30.15 in 10.0 mi Calm Calm - N/A   Clear
7:55 AM 33.8 °F 29.6 °F 30.2 °F 87% 30.16 in 10.0 mi South 4.6 mph - N/A   Clear
8:15 AM 35.6 °F 30.7 °F 32.0 °F 87% 30.16 in 10.0 mi SSW 5.8 mph - N/A   Clear
8:35 AM 37.4 °F 32.8 °F 32.0 °F 81% 30.17 in 10.0 mi SSW 5.8 mph - N/A   Clear
8:55 AM 39.2 °F 35.0 °F 32.0 °F 75% 30.18 in 10.0 mi SW 5.8 mph - N/A   Clear
9:15 AM 41.0 °F 37.1 °F 32.0 °F 70% 30.19 in 10.0 mi WSW 5.8 mph - N/A   Clear
9:35 AM 42.8 °F 39.3 °F 32.0 °F 66% 30.19 in 10.0 mi West 5.8 mph - N/A   Clear
9:55 AM 42.8 °F 38.0 °F 32.0 °F 66% 30.19 in 10.0 mi West 8.1 mph - N/A   Scattered Clouds
10:15 AM 44.6 °F 40.2 °F 32.0 °F 61% 30.19 in 10.0 mi WNW 8.1 mph - N/A   Scattered Clouds
10:35 AM 46.4 °F 40.4 °F 32.0 °F 57% 30.19 in 10.0 mi NW 13.8 mph 18.4 mph N/A   Scattered Clouds
10:55 AM 46.4 °F 41.9 °F 32.0 °F 57% 30.19 in 10.0 mi West 9.2 mph 18.4 mph N/A   Scattered Clouds
11:15 AM 46.4 °F 41.5 °F 32.0 °F 57% 30.19 in 10.0 mi NW 10.4 mph - N/A   Mostly Cloudy
11:35 AM 48.2 °F - 32.0 °F 54% 30.19 in 10.0 mi NW 10.4 mph 16.1 mph N/A   Mostly Cloudy
11:55 AM 50.0 °F - 32.0 °F 50% 30.20 in 10.0 mi NW 9.2 mph 18.4 mph N/A   Scattered Clouds
12:15 PM 50.0 °F - 32.0 °F 50% 30.20 in 10.0 mi West 8.1 mph 16.1 mph N/A   Mostly Cloudy
12:35 PM 50.0 °F - 32.0 °F 50% 30.20 in 10.0 mi NW 12.7 mph 17.3 mph N/A   Mostly Cloudy
12:55 PM 48.2 °F - 32.0 °F 54% 30.20 in 10.0 mi NW 12.7 mph 21.9 mph N/A   Scattered Clouds
1:15 PM 50.0 °F - 30.2 °F 47% 30.19 in 10.0 mi WNW 8.1 mph 19.6 mph N/A   Scattered Clouds
1:35 PM 50.0 °F - 30.2 °F 47% 30.18 in 10.0 mi WNW 5.8 mph 16.1 mph N/A   Scattered Clouds
1:55 PM 50.0 °F - 30.2 °F 47% 30.18 in 10.0 mi WNW 9.2 mph 17.3 mph N/A   Scattered Clouds
2:15 PM 51.8 °F - 30.2 °F 44% 30.18 in 10.0 mi West 8.1 mph 17.3 mph N/A   Scattered Clouds
2:35 PM 51.8 °F - 28.4 °F 41% 30.18 in 10.0 mi NW 11.5 mph 17.3 mph N/A   Scattered Clouds
2:55 PM 50.0 °F - 30.2 °F 47% 30.18 in 10.0 mi NW 10.4 mph - N/A   Mostly Cloudy
3:15 PM 51.8 °F - 30.2 °F 44% 30.18 in 10.0 mi WNW 9.2 mph 16.1 mph N/A   Overcast
3:35 PM 51.8 °F - 30.2 °F 44% 30.18 in 10.0 mi West 12.7 mph 16.1 mph N/A   Mostly Cloudy
3:55 PM 51.8 °F - 30.2 °F 44% 30.18 in 10.0 mi WNW 11.5 mph 18.4 mph N/A   Scattered Clouds
4:15 PM 51.8 °F - 30.2 °F 44% 30.18 in 10.0 mi WNW 10.4 mph 21.9 mph N/A   Scattered Clouds
4:35 PM 51.8 °F - 30.2 °F 44% 30.18 in 10.0 mi WNW 6.9 mph - N/A   Clear
4:55 PM 51.8 °F - 30.2 °F 44% 30.18 in 10.0 mi WNW 9.2 mph 16.1 mph N/A   Clear
5:15 PM 50.0 °F - 30.2 °F 47% 30.19 in 10.0 mi West 9.2 mph 18.4 mph N/A   Clear
5:35 PM 50.0 °F - 30.2 °F 47% 30.19 in 10.0 mi WNW 8.1 mph - N/A   Scattered Clouds
5:55 PM 50.0 °F - 30.2 °F 47% 30.20 in 10.0 mi West 8.1 mph - N/A   Scattered Clouds
6:15 PM 48.2 °F - 32.0 °F 54% 30.20 in 10.0 mi WNW 3.5 mph - N/A   Scattered Clouds
6:35 PM 46.4 °F 44.3 °F 32.0 °F 57% 30.21 in 10.0 mi SW 4.6 mph - N/A   Scattered Clouds
6:55 PM 46.4 °F 45.2 °F 32.0 °F 57% 30.22 in 10.0 mi SSW 3.5 mph - N/A   Scattered Clouds
7:15 PM 42.8 °F 40.1 °F 32.0 °F 66% 30.22 in 10.0 mi SW 4.6 mph - N/A   Clear
7:35 PM 42.8 °F 40.1 °F 32.0 °F 66% 30.22 in 10.0 mi SW 4.6 mph - N/A   Scattered Clouds
7:55 PM 44.6 °F 43.1 °F 32.0 °F 61% 30.23 in 10.0 mi WSW 3.5 mph - N/A   Mostly Cloudy
8:15 PM 42.8 °F 40.1 °F 32.0 °F 66% 30.23 in 10.0 mi South 4.6 mph - N/A   Overcast
8:35 PM 42.8 °F 41.1 °F 32.0 °F 66% 30.23 in 10.0 mi SSW 3.5 mph - N/A   Mostly Cloudy
8:55 PM 42.8 °F - 32.0 °F 66% 30.24 in 10.0 mi Calm Calm - N/A   Clear
9:15 PM 41.0 °F - 32.0 °F 70% 30.24 in 10.0 mi Calm Calm - N/A   Clear
9:35 PM 42.8 °F - 32.0 °F 66% 30.24 in 10.0 mi Calm Calm - N/A   Clear
9:55 PM 41.0 °F 39.0 °F 32.0 °F 70% 30.25 in 10.0 mi WSW 3.5 mph - N/A   Clear
10:15 PM 41.0 °F 38.0 °F 32.0 °F 70% 30.25 in 10.0 mi SW 4.6 mph - N/A   Clear
10:35 PM 41.0 °F 37.1 °F 30.2 °F 65% 30.26 in 10.0 mi SW 5.8 mph - N/A   Clear
10:55 PM 41.0 °F 37.1 °F 32.0 °F 70% 30.25 in 10.0 mi SW 5.8 mph - N/A   Clear
11:15 PM 41.0 °F 37.1 °F 30.2 °F 65% 30.25 in 10.0 mi WSW 5.8 mph - N/A   Clear
11:35 PM 41.0 °F 34.7 °F 30.2 °F 65% 30.26 in 10.0 mi SW 10.4 mph - N/A   Clear
11:55 PM 41.0 °F 38.0 °F 30.2 °F 65% 30.25 in 10.0 mi WSW 4.6 mph - N/A   Clear